Regional Weather Roundup
Issued by NWS Kansas City/Pleasant Hill, MO

Home | Current Version | Previous Version | Graphics & Text | Print | Product List | Glossary Off
Versions: 1 2 3 4 5 6 7 8 9 10 11 12 13 14 15 16 17 18 19 20 21 22 23 24 25 26 27 28 29 30 31 32 33 34 35 36 37 38 39 40 41 42 43 44 45 46 47 48 49 50

000
ASUS43 KEAX 300910
RWREAX

WEATHER ROUNDUP FOR EASTERN KANSAS AND NORTHWEST MISSOURI
NATIONAL WEATHER SERVICE KANSAS CITY/PLEASANT HILL MO
400 AM CDT SUN AUG 30 2015

KSZ040-057-103>105-MOZ028-029-037-043-301000-
...KANSAS CITY METROPOLITAN AREA...

CITY           SKY/WX    TMP DP  RH WIND       PRES   REMARKS
K.C. INTL      CLOUDY    66  60  81 NE5       30.02F
K.C. DOWNTOWN  CLOUDY    70  67  90 CALM      30.01S
LEES SUMMIT    CLOUDY    68  66  93 NE8       30.02S
OLATHE - IXD   CLOUDY    66  65  96 N6        30.02S
OLATHE - OJC   CLOUDY    67  66  97 NE6       30.01S
LAWRENCE       CLEAR     62  61  96 CALM      30.02S

$$

MOZ001>008-011>017-020>025-030>033-038>040-044>046-053-054-301000-
...NORTHERN AND CENTRAL MISSOURI...

CITY           SKY/WX    TMP DP  RH WIND       PRES   REMARKS
ST. JOSEPH     PTCLDY    62  61  96 N3        30.02S
MOSBY          SUNNY     64  63  94 CALM      30.01F FOG
WARRENSBURG    FOG       64  64 100 CALM      30.00S VSB 3/4
WHITEMAN AFB   PTCLDY    68  68 100 NE2       29.99S FOG
CLINTON        CLEAR     68  68 100 CALM      30.00S FOG
SEDALIA        FOG       67  66  97 CALM      30.01S VSB 3/4
WARSAW         NOT AVBL
CHILLICOTHE      N/A     68  66  93 CALM      30.03S
KIRKSVILLE     FOG       68  67  96 NE9       30.03S VSB 1/2

$$

MOZ041-047>049-056>058-063>065-088>090-097-301000-
...EASTERN AND SOUTHERN MISSOURI...

CITY           SKY/WX    TMP DP  RH WIND       PRES   REMARKS
ST. LOUIS INTL PTCLDY    74  65  73 S3        30.01S
SPIRIT OF STL  CLEAR     69  67  93 CALM      29.99S
COLUMBIA       CLEAR     67  66  97 NE6       30.00S FOG
JEFFERSON CITY CLEAR     68  66  93 CALM      29.99S FOG
ROLLA          CLEAR     66  64  93 SE5       30.01R
OSAGE BEACH    CLEAR     66  63  88 CALM      30.00S
SPRINGFIELD    PTCLDY    69  65  86 SE6       29.99S
BRANSON        CLOUDY    68  68 100 CALM      30.01S
JOPLIN         FOG       69  69 100 CALM      29.98S VSB 1
WEST PLAINS    CLOUDY    69  65  86 CALM      30.04S

$$

IAZ060-094-KSZ022-034>040-054-083-096-NEZ052-066-093-301000-
...KANSAS...SOUTHEAST NEBRASKA AND IOWA...

CITY           SKY/WX    TMP DP  RH WIND       PRES   REMARKS
TOPEKA         FOG       61  60  97 CALM      30.02F VSB 1/2
MANHATTAN      MOCLDY    60  60 100 CALM      30.03S FOG
EMPORIA        FOG       63  63 100 NE6       30.02S VSB 1/4
CHANUTE        PTCLDY    65  65 100 N3        30.00S FOG
WICHITA        CLEAR     60  58  92 CALM      30.02S
OMAHA          CLEAR     64  62  93 S5        30.03S
LINCOLN        CLOUDY    62  61  96 S5        30.04F FOG
FALLS CITY     CLOUDY    57  57 100 CALM      30.03S FOG
LAMONI         FOG       64  63  96 CALM      30.04S VSB 1/4
DES MOINES     PTCLDY    62  59  90 CALM      30.03S FOG

$$




USA.gov is the U.S. government's official web portal to all federal, state and local government web resources and services.